When you browse on this site, cookies collect data to enhance your experience and personalize the content and advertising you see.
Visit our Privacy Policy to learn more. By continuing to use the site, you agree to this use of cookies and data.
  • în România
  • Lista ţărilor
  • Pe 7 zile
  • Temperatura apei
  • Hartă satelitară
  • Meteo pe hartă
  • Widget-uri
  • user-avatar
    Intrare

    Meteo pe oră la Oklahoma-Siti

    Astăzi, 10 Decembrie, Luni

    Timp Temperatura Precipitaţii Vânt Presiune Umiditate
    00:00 +2°C° 0 mm 1 m/s 736 mmHg 62%
    01:00 +2°C° 0 mm 1 m/s 736 mmHg 62%
    02:00 +2°C° 0 mm 1 m/s 736 mmHg 63%
    03:00 +2°C° 0 mm 1 m/s 736 mmHg 64%
    04:00 +1°C° 0 mm 1 m/s 736 mmHg 65%
    05:00 -1°C° 0 mm 2 m/s 737 mmHg 67%
    06:00 +1°C° 0 mm 2 m/s 737 mmHg 65%
    07:00 +1°C° 0 mm 2 m/s 737 mmHg 64%
    08:00 +2°C° 0 mm 2 m/s 738 mmHg 63%
    09:00 +3°C° 0 mm 2 m/s 738 mmHg 57%
    10:00 +5°C° 0 mm 2 m/s 738 mmHg 52%
    11:00 +7°C° 0 mm 2 m/s 738 mmHg 47%
    12:00 +8°C° 0 mm 1 m/s 737 mmHg 45%
    13:00 +9°C° 0 mm 1 m/s 737 mmHg 42%
    14:00 +10°C° 0 mm 1 m/s 736 mmHg 40%
    15:00 +8°C° 0 mm 1 m/s 736 mmHg 46%
    16:00 +7°C° 0 mm 1 m/s 736 mmHg 51%
    17:00 +5°C° 0 mm 1 m/s 736 mmHg 56%
    18:00 +5°C° 0 mm 1 m/s 736 mmHg 58%
    19:00 +4°C° 0 mm 2 m/s 736 mmHg 61%
    20:00 +3°C° 0 mm 2 m/s 736 mmHg 63%
    21:00 +3°C° 0 mm 2 m/s 736 mmHg 66%
    22:00 +2°C° 0 mm 3 m/s 736 mmHg 69%
    23:00 +1°C° 0 mm 3 m/s 736 mmHg 72%

    Mâine, 11 Decembrie, Marţi

    Timp Temperatura Precipitaţii Vânt Presiune Umiditate
    00:00 +1°C° 0 mm 3 m/s 736 mmHg 74%
    01:00 0°C° 0 mm 4 m/s 735 mmHg 76%
    02:00 0°C° 0 mm 4 m/s 735 mmHg 78%
    03:00 0°C° 0 mm 4 m/s 735 mmHg 78%
    04:00 0°C° 0 mm 4 m/s 734 mmHg 78%
    05:00 0°C° 0 mm 4 m/s 734 mmHg 78%
    06:00 +1°C° 0 mm 5 m/s 734 mmHg 74%
    07:00 +2°C° 0 mm 6 m/s 734 mmHg 69%
    08:00 +3°C° 0 mm 6 m/s 734 mmHg 65%
    09:00 +5°C° 0 mm 7 m/s 733 mmHg 59%
    10:00 +7°C° 0 mm 8 m/s 733 mmHg 53%
    11:00 +10°C° 0 mm 9 m/s 733 mmHg 47%
    12:00 +11°C° 0 mm 9 m/s 731 mmHg 47%
    13:00 +11°C° 0 mm 9 m/s 730 mmHg 46%
    14:00 +11°C° 0 mm 9 m/s 729 mmHg 46%
    15:00 +11°C° 0 mm 8 m/s 729 mmHg 49%
    16:00 +10°C° 0 mm 8 m/s 729 mmHg 53%
    17:00 +9°C° 0 mm 7 m/s 729 mmHg 56%
    18:00 +9°C° 0 mm 7 m/s 729 mmHg 58%
    19:00 +9°C° 0 mm 7 m/s 729 mmHg 59%
    20:00 +9°C° 0 mm 7 m/s 729 mmHg 61%
    21:00 +9°C° 0 mm 6 m/s 729 mmHg 63%
    22:00 +8°C° 0 mm 6 m/s 729 mmHg 66%
    23:00 +8°C° 0 mm 6 m/s 729 mmHg 68%

    Poimâine, 12 Decembrie, Miercuri

    Timp Temperatura Precipitaţii Vânt Presiune Umiditate
    00:00 +8°C° 0 mm 5 m/s 729 mmHg 72%
    01:00 +7°C° 0 mm 4 m/s 729 mmHg 75%
    02:00 +7°C° 0 mm 3 m/s 728 mmHg 78%
    03:00 +7°C° 0 mm 3 m/s 728 mmHg 80%
    04:00 +6°C° 0 mm 2 m/s 728 mmHg 81%
    05:00 +5°C° 0 mm 2 m/s 728 mmHg 83%
    06:00 +6°C° 0 mm 2 m/s 728 mmHg 81%
    07:00 +7°C° 0 mm 1 m/s 728 mmHg 79%
    08:00 +7°C° 0 mm 1 m/s 728 mmHg 78%
    09:00 +8°C° 0 mm 2 m/s 728 mmHg 74%
    10:00 +10°C° 0 mm 3 m/s 727 mmHg 70%
    11:00 +12°C° 0 mm 3 m/s 727 mmHg 66%
    12:00 +13°C° 0 mm 4 m/s 726 mmHg 66%
    13:00 +14°C° 0 mm 5 m/s 725 mmHg 66%
    14:00 +14°C° 0 mm 5 m/s 724 mmHg 66%
    15:00 +14°C° 0 mm 5 m/s 724 mmHg 71%
    16:00 +13°C° 0 mm 5 m/s 724 mmHg 75%
    17:00 +12°C° 0 mm 4 m/s 723 mmHg 80%
    18:00 +10°C° 0 mm 5 m/s 723 mmHg 81%
    19:00 +10°C° 0 mm 5 m/s 722 mmHg 83%
    20:00 +9°C° 0 mm 5 m/s 722 mmHg 84%
    21:00 +10°C° 0 mm 6 m/s 721 mmHg 86%
    22:00 +10°C° 0 mm 7 m/s 720 mmHg 88%
    23:00 +11°C° 0 mm 8 m/s 720 mmHg 90%

    13 Decembrie, Joi

    Timp Temperatura Precipitaţii Vânt Presiune Umiditate
    00:00 +11°C° 0 mm 8 m/s 719 mmHg 91%
    01:00 +11°C° 0 mm 8 m/s 718 mmHg 91%
    02:00 +10°C° 0 mm 7 m/s 717 mmHg 91%
    03:00 +10°C° 0 mm 6 m/s 717 mmHg 91%
    04:00 +10°C° 0 mm 4 m/s 717 mmHg 91%
    05:00 +9°C° 0 mm 3 m/s 717 mmHg 91%
    06:00 +8°C° 0.2 mm 5 m/s 717 mmHg 89%
    07:00 +6°C° 0.2 mm 7 m/s 718 mmHg 87%
    08:00 +6°C° 0.2 mm 10 m/s 719 mmHg 85%
    09:00 +4°C° 1.1 mm 12 m/s 719 mmHg 82%
    10:00 +3°C° 1.1 mm 13 m/s 719 mmHg 80%
    11:00 +1°C° 1.1 mm 15 m/s 719 mmHg 77%
    12:00 +1°C° 1.8 mm 15 m/s 720 mmHg 78%
    13:00 0°C° 1.8 mm 15 m/s 720 mmHg 78%
    14:00 0°C° 1.8 mm 15 m/s 720 mmHg 79%
    15:00 0°C° 1.6 mm 15 m/s 721 mmHg 77%
    16:00 0°C° 1.6 mm 14 m/s 722 mmHg 75%
    17:00 0°C° 1.6 mm 14 m/s 723 mmHg 73%
    18:00 -1°C° 0.5 mm 13 m/s 723 mmHg 71%
    19:00 -1°C° 0.5 mm 12 m/s 724 mmHg 68%
    20:00 -1°C° 0.5 mm 11 m/s 725 mmHg 66%
    21:00 -1°C° 0.1 mm 11 m/s 725 mmHg 65%
    22:00 -2°C° 0.1 mm 11 m/s 726 mmHg 65%
    23:00 -2°C° 0.1 mm 11 m/s 726 mmHg 64%

    14 Decembrie, Vineri

    Timp Temperatura Precipitaţii Vânt Presiune Umiditate
    00:00 -2°C° 0.1 mm 11 m/s 726 mmHg 63%
    01:00 -2°C° 0.1 mm 11 m/s 727 mmHg 62%
    02:00 -3°C° 0.1 mm 11 m/s 727 mmHg 61%
    03:00 -3°C° 0 mm 11 m/s 728 mmHg 60%
    04:00 -3°C° 0 mm 11 m/s 728 mmHg 58%
    05:00 -3°C° 0 mm 11 m/s 729 mmHg 57%
    06:00 -3°C° 0 mm 11 m/s 729 mmHg 56%
    07:00 -2°C° 0 mm 11 m/s 730 mmHg 56%
    08:00 -2°C° 0 mm 11 m/s 730 mmHg 55%
    09:00 -1°C° 0 mm 11 m/s 731 mmHg 53%
    10:00 +2°C° 0 mm 10 m/s 731 mmHg 51%
    11:00 +3°C° 0 mm 10 m/s 731 mmHg 49%
    12:00 +5°C° 0 mm 10 m/s 731 mmHg 48%
    13:00 +6°C° 0 mm 9 m/s 730 mmHg 48%
    14:00 +7°C° 0 mm 9 m/s 730 mmHg 47%
    15:00 +6°C° 0 mm 7 m/s 730 mmHg 52%
    16:00 +5°C° 0 mm 6 m/s 730 mmHg 58%
    17:00 +5°C° 0 mm 5 m/s 731 mmHg 63%
    18:00 +3°C° 0 mm 5 m/s 731 mmHg 64%
    19:00 +3°C° 0 mm 5 m/s 731 mmHg 65%
    20:00 +2°C° 0 mm 5 m/s 731 mmHg 66%
    21:00 +3°C° 0 mm 4 m/s 732 mmHg 67%
    22:00 +1°C° 0 mm 4 m/s 732 mmHg 69%
    23:00 +2°C° 0 mm 3 m/s 732 mmHg 70%

    15 Decembrie, Sâmbătă

    Timp Temperatura Precipitaţii Vânt Presiune Umiditate
    00:00 +2°C° 0 mm 3 m/s 732 mmHg 71%
    01:00 +1°C° 0 mm 3 m/s 732 mmHg 72%
    02:00 +1°C° 0 mm 3 m/s 731 mmHg 73%
    03:00 +2°C° 0 mm 2 m/s 732 mmHg 73%
    04:00 +1°C° 0 mm 2 m/s 732 mmHg 74%
    05:00 +2°C° 0 mm 1 m/s 732 mmHg 74%
    06:00 +3°C° 0 mm 1 m/s 732 mmHg 72%
    07:00 +4°C° 0 mm 1 m/s 733 mmHg 69%
    08:00 +4°C° 0 mm 1 m/s 733 mmHg 66%
    09:00 +5°C° 0 mm 2 m/s 733 mmHg 60%
    10:00 +7°C° 0 mm 2 m/s 733 mmHg 54%
    11:00 +9°C° 0 mm 3 m/s 732 mmHg 48%
    12:00 +10°C° 0 mm 3 m/s 732 mmHg 48%
    13:00 +10°C° 0 mm 3 m/s 731 mmHg 49%
    14:00 +11°C° 0 mm 3 m/s 731 mmHg 49%
    15:00 +10°C° 0 mm 3 m/s 731 mmHg 55%
    16:00 +9°C° 0 mm 3 m/s 731 mmHg 60%
    17:00 +7°C° 0 mm 3 m/s 731 mmHg 65%
    18:00 +7°C° 0 mm 3 m/s 731 mmHg 66%
    19:00 +7°C° 0 mm 3 m/s 731 mmHg 67%
    20:00 +5°C° 0 mm 3 m/s 731 mmHg 68%
    21:00 +5°C° 0 mm 3 m/s 731 mmHg 68%
    22:00 +5°C° 0 mm 3 m/s 731 mmHg 68%
    23:00 +5°C° 0 mm 3 m/s 731 mmHg 69%
    Arată mai mult